User: anonymous   Login
Location: C�an Torras
(41.5052°N, 1.9280°E)
Time: 11:41:18
(UTC+00:00)
Language:

COSMO-SKYMED 1 - Orbit

View from above orbital plane
View from above orbital plane
View from above satellite
View from above satellite

Ground track
Ground track

The orbit data is extracted from the following two-line orbital elements,

1 31598U 07023A   21103.15704187  .00000278  00000-0  41440-4 0  9992
2 31598  97.8894 287.9750 0001546  92.1314 268.0062 14.82156783749220
Epoch (UTC): 13 April 2021 03:46:08
Eccentricity: 0.0001546
inclination: 97.8894°
perigee height: 621 km
apogee height: 623 km
right ascension of ascending node: 287.9750°
argument of perigee: 92.1314°
revolutions per day: 14.82156783
mean anomaly at epoch: 268.0062°
orbit number at epoch: 74922

The dashed part of the orbit path shows where the satellite is in the earth's shadow,  

DLR